Regional Weather Roundup
Issued by NWS Sterling, VA

Home | Current Version | Previous Version | Graphics & Text | Print | Product List | Glossary On
Versions: 1 2 3 4 5 6 7 8 9 10 11 12 13 14 15 16 17 18 19 20 21 22 23 24 25 26 27
000
ASUS41 KLWX 281210
RWRLWX

REGIONAL WEATHER ROUNDUP
NATIONAL WEATHER SERVICE BALTIMORE MD/WASHINGTON DC
800 AM EDT WED SEP 28 2016

Note: "FAIR" indicates few or no clouds below 12,000 feet
with no significant weather and/or obstructions to visibility.
 TC=TEMPERATURE CELSIUS

 * =Non NWS site. Station does not report precipitation (e.g. rain,
    snow, etc.), thunder, or fog.

DCZ001-MDZ009-015-VAZ040>042-051-053>054-281300-
WASHINGTON METRO

CITY           SKY/WX    TMP DP  RH WIND       PRES   REMARKS
WASHINGTON NAT RAIN      66  65  96 NE7       29.99R FOG
DULLES         CLOUDY    64  61  90 NE7       29.98R
ANDREWS AFB    LGT RAIN  64  63  94 E12       29.96R FOG
FT BELVOIR     LGT RAIN  64  63  94 VRB2      29.96S FOG
QUANTICO       TSTM      68  65  90 E13       29.97R FOG
COLLEGE PARK*  CLOUDY    63  61  94 E3        29.99R
LEESBURG*      CLOUDY    63  63 100 NE3       30.00R FOG
MANASSAS*      LGT RAIN  64  64 100 CALM      29.97R FOG
GAITHERSBURG*  CLOUDY    61  57  88 E5        30.03R

$$

MDZ006>007-011-014-281300-
BALTIMORE METRO

CITY           SKY/WX    TMP DP  RH WIND       PRES   REMARKS
BWI AIRPORT    PTSUNNY   63  61  93 NE7       29.99R FOG
MD SCIENCE CTR   N/A     63  58  83 MISG      30.00R
MARTIN STATE   PTSUNNY   61  61 100 CALM      30.01R
ANNAPOLIS      CLOUDY    67  62  84 NE8       29.98R
FORT MEADE*    CLOUDY    63  61  94 E3        30.01R

$$

MDZ012-015-019>023-281300-
MARYLAND EASTERN SHORE

CITY           SKY/WX    TMP DP  RH WIND       PRES   REMARKS
OCEAN CITY     CLOUDY    71  65  81 NE12      29.98R
SALISBURY      CLOUDY    67  65  93 NE9       29.97S
BAY BRIDGE AP* CLOUDY    64  61  88 MISG      29.97S FOG
CAMBRIDGE*     PTSUNNY   63  63 100 E7        29.95F

$$

MDZ017>025-281300-
SOUTHERN MARYLAND

CITY           SKY/WX    TMP DP  RH WIND       PRES   REMARKS
PATUXENT RIVER LGT RAIN  68  64  87 E18G25    29.94S
ST INIGOES     CLOUDY    69  67  93 E10       29.94
LEONARDTOWN*   CLOUDY    66  63  88 E9G17     29.96S

$$

MDZ003>005-281300-
NORTH CENTRAL MARYLAND

CITY           SKY/WX    TMP DP  RH WIND       PRES   REMARKS
FREDERICK*     CLOUDY    59  59 100 NE7       30.03R FOG
HAGERSTOWN APT LGT RAIN  61  57  87 NE8       30.00R FOG

$$

MDZ501>502-281300-
WESTERN MARYLAND

CITY           SKY/WX    TMP DP  RH WIND       PRES   REMARKS
OAKLAND*       CLEAR     48  37  66 E10       30.00S
CUMBERLAND*    CLOUDY    52  46  82 CALM      30.04S

$$

VAZ025>031-281300-
SHENANDOAH VALLEY

CITY           SKY/WX    TMP DP  RH WIND       PRES   REMARKS
WINCHESTER*    CLOUDY    61  61 100 NE3       29.99R FOG
FRONT ROYAL*   CLOUDY    59  59 100 N3        29.97R VSB 1
LURAY*         FOG      N/A N/A N/A CALM      29.97S VSB 1/2
NEW MARKET*    CLOUDY   N/A N/A N/A CALM      29.98R
STAUNTON*      CLOUDY    59  56  88 CALM      29.99R
WAYNESBORO*    CLOUDY    60  56  85 CALM      29.98S

$$

WVZ021-048>050-054>055-281300-
EASTERN WEST VIRGINIA PANHANDLE

CITY           SKY/WX    TMP DP  RH WIND       PRES   REMARKS
MARTINSBURG    CLOUDY    58  56  93 N3        30.00R FOG
PETERSBURG*    MOCLDY    45  43  94 CALM      30.01R

$$

VAZ036>039-050-281300-
CENTRAL FOOTHILLS

CITY           SKY/WX    TMP DP  RH WIND       PRES   REMARKS
CHARLOTTESVILL FOG       66  64  93 N6        29.95R VSB 1
CULPEPER*      CLOUDY    66  66  99 NE3       29.96S FOG
ORANGE*          N/A     64  64 100 CALM      29.96S
GORDONSVILLE*  NOT AVBL
WARRENTON*     RAIN      66  62  86 NE5       29.96R

$$

VAZ055>057-281300-
NORTH AND CENTRAL PIEDMONT

CITY           SKY/WX    TMP DP  RH WIND       PRES   REMARKS
FREDERICKSBRG* CLOUDY    66  66 100 N3        29.95R
STAFFORD*      CLOUDY    64  64 100 NE5       29.99S

$$

NCZ024-NYZ072-PAZ021-071-VAZ022-071-281300-
OTHER REGIONAL OBSERVATIONS

CITY           SKY/WX    TMP DP  RH WIND       PRES   REMARKS
NEW YORK CITY  PTSUNNY   63  58  83 NE7       30.10R HAZE
PHILADELPHIA   PTSUNNY   62  57  83 NE7       30.02S
PITTSBURGH     PTCLDY    48  45  89 E3        29.94S
ROANOKE        PTCLDY    61  56  83 CALM      29.98R
RICHMOND       CLOUDY    68  67  96 S5        29.93S
RALEIGH        MOCLDY    70  68  93 CALM      29.94S

$$

ANZ530>537-281300-
MARINE OBSERVATIONS

STATION/POSITION TIME  TEMP    WIND        PRES
                       AIR SEA DIR/SP/G
                 (UTC) (F)     (DEG/KT/KT) (MB)
THOMAS PT LIGHT  1200   65 73   70/ 13/ 15 1016.3R
BALT KEY BRIDGE  1148   63      30/  7/  8 1015.5R
COVE POINT       1148   67     120/ 17/ 20 1014.7R
LEWISETTA        1148   71 73  110/ 17/ 19 1013.3R
SOLOMONS ISLAND  1142   69 75   70/ 18/ 21   N/A
PINEY POINT      1142          100/ 13/ 14   N/A

$$





USA.gov is the U.S. government's official web portal to all federal, state and local government web resources and services.